Regional Weather Roundup
Issued by NWS Glasgow, MT

Home | Current Version | Previous Version | Text Only | Print | Product List | Glossary On
Versions: 1 2 3 4 5 6 7 8 9 10 11 12 13 14 15 16 17 18 19 20 21 22 23 24 25 26 27 28 29 30 31 32 33 34 35 36 37 38 39 40 41 42 43 44 45 46 47 48 49 50
000
ASUS45 KGGW 291015
RWRGGW
HOURLY WEATHER ROUNDUP FOR NORTHEAST MONTANA
NATIONAL WEATHER SERVICE GLASGOW MONTANA
300 AM MST THU JAN 29 2015

NOTE: "FAIR" INDICATES FEW OR NO CLOUDS BELOW 12,000 FEET WITH NO
SIGNIFICANT WEATHER AND/OR OBSTRUCTIONS TO VISISBILITY.

NORTHEAST MONTANA


CITY           SKY/WX    TMP DP  RH WIND       PRES   REMARKS
GLASGOW        CLEAR     23  21  92 NW6       30.42S
PLENTYWOOD       N/A     23  20  88 NW13        N/A
WOLF POINT     CLOUDY    27  23  85 W3        30.44S
JORDAN           N/A     21  19  92 W6        30.43R
WINNETT          N/A     24  23  96 E2          N/A
SIDNEY         CLOUDY    28  21  74 NW12      30.44S
GLENDIVE       CLEAR     27  21  80 NW8       30.41S
MALTA            N/A     24  24 100 SE3         N/A

FORT PECK REPORTS


CITY           SKY/WX    TMP DP  RH WIND       PRES   REMARKS
FORT PECK        N/A     27  27 100 W6          N/A
THE PINES        N/A     28  27  96 NW3         N/A

SOUTHEAST MONTANA


CITY           SKY/WX    TMP DP  RH WIND       PRES   REMARKS
BILLINGS       CLEAR     33  26  75 S6        30.42S
MILES CITY     CLEAR     24  22  91 W7        30.44R
BAKER          CLOUDY    29  24  82 NW15      30.40S
LIVINGSTON     CLEAR     24  20  84 W3        30.40R

CENTRAL MONTANA


CITY           SKY/WX    TMP DP  RH WIND       PRES   REMARKS
HAVRE          CLEAR     24  22  91 E6        30.40S
LEWISTOWN      CLEAR     25  21  85 SE7       30.38S
GREAT FALLS    CLEAR     23  20  88 S7        30.35S
CUT BANK       CLEAR     23  21  92 N3        30.33S
HELENA         CLEAR     28  22  78 CALM      30.40S
BUTTE          CLEAR     20  17  88 SE3       30.40S
BOZEMAN        CLEAR     24  19  81 CALM      30.42R

WESTERN MONTANA


CITY           SKY/WX    TMP DP  RH WIND       PRES   REMARKS
MISSOULA       CLEAR     26  23  88 CALM      30.46S
KALISPELL      NOT AVBL

NORTH DAKOTA


CITY           SKY/WX    TMP DP  RH WIND       PRES   REMARKS
WILLISTON      CLOUDY    27  20  75 NW10      30.41R
DICKINSON      CLOUDY    30  21  69 NW20      30.33R
MINOT          CLOUDY    23  17  78 NW20G28   30.34R
BISMARCK       CLOUDY    30  25  81 N15       30.33R

SOUTHERN SASKATCHEWAN


CITY           SKY/WX    TMP DP  RH WIND       PRES   REMARKS
REGINA         CLOUDY    16  14  93 N10       30.41R
ESTEVAN        FLURRIES  21  18  86 NW17G24   30.38R
SWIFT CURRENT  CLEAR     16  14  93 W6        30.38S



USA.gov is the U.S. government's official web portal to all federal, state and local government web resources and services.